TimeEST,TemperatureF,Dew PointF,Humidity,Sea Level PressureIn,VisibilityMPH,Wind Direction,Wind SpeedMPH,Gust SpeedMPH,PrecipitationIn,Events,Conditions,WindDirDegrees,DateUTC
12:53 AM,30.9,27.0,85,29.91,10.0,WNW,17.3,-,N/A,,Clear,290,2013-01-17 05:53:00
1:53 AM,30.9,26.1,82,29.92,10.0,West,18.4,27.6,N/A,,Clear,280,2013-01-17 06:53:00
2:53 AM,30.9,25.0,79,29.94,10.0,West,20.7,26.5,N/A,,Clear,280,2013-01-17 07:53:00
3:53 AM,30.0,24.1,79,29.91,10.0,West,16.1,24.2,N/A,,Clear,280,2013-01-17 08:53:00
4:53 AM,28.9,24.1,82,29.93,10.0,WNW,19.6,27.6,N/A,,Clear,290,2013-01-17 09:53:00
5:53 AM,28.9,24.1,82,29.96,10.0,WNW,15.0,24.2,N/A,,Overcast,290,2013-01-17 10:53:00
7:53 AM,28.9,24.1,82,30.01,10.0,WNW,11.5,19.6,N/A,,Partly Cloudy,300,2013-01-17 12:53:00
8:53 AM,30.0,24.1,79,30.03,10.0,WNW,13.8,26.5,N/A,,Clear,290,2013-01-17 13:53:00
9:11 AM,30.2,24.8,80,29.98,10.0,WNW,12.7,-,N/A,,Mostly Cloudy,290,2013-01-17 14:11:00
9:53 AM,30.0,25.0,82,30.05,10.0,WNW,13.8,21.9,N/A,,Partly Cloudy,300,2013-01-17 14:53:00
10:17 AM,30.2,24.8,80,30.00,10.0,WNW,15.0,20.7,N/A,,Mostly Cloudy,290,2013-01-17 15:17:00
10:53 AM,30.9,25.0,79,30.05,10.0,WNW,12.7,20.7,N/A,,Overcast,300,2013-01-17 15:53:00
11:53 AM,32.0,24.1,73,30.05,10.0,WNW,17.3,21.9,N/A,,Mostly Cloudy,300,2013-01-17 16:53:00
12:12 PM,33.8,24.8,70,29.99,10.0,WNW,10.4,20.7,N/A,,Scattered Clouds,300,2013-01-17 17:12:00
12:19 PM,32.0,23.0,69,29.99,10.0,NW,13.8,21.9,N/A,,Mostly Cloudy,310,2013-01-17 17:19:00
12:53 PM,32.0,24.1,73,30.03,10.0,NW,12.7,19.6,N/A,,Mostly Cloudy,320,2013-01-17 17:53:00
1:53 PM,32.0,24.1,73,30.04,10.0,NW,10.4,-,N/A,,Overcast,320,2013-01-17 18:53:00
2:53 PM,32.0,21.9,66,30.03,10.0,NW,6.9,16.1,N/A,,Mostly Cloudy,320,2013-01-17 19:53:00
3:03 PM,33.8,21.2,60,29.96,10.0,NW,10.4,-,N/A,,Mostly Cloudy,320,2013-01-17 20:03:00
3:53 PM,32.0,23.0,69,30.04,10.0,NNW,8.1,-,N/A,,Overcast,330,2013-01-17 20:53:00
4:53 PM,30.9,23.0,72,30.06,10.0,NNW,5.8,-,N/A,,Overcast,340,2013-01-17 21:53:00
5:53 PM,30.0,23.0,75,30.08,10.0,North,5.8,-,N/A,,Overcast,350,2013-01-17 22:53:00
6:53 PM,28.9,21.0,72,30.09,10.0,NNW,4.6,-,N/A,,Overcast,340,2013-01-17 23:53:00
7:53 PM,28.0,19.9,72,30.08,10.0,Calm,Calm,-,N/A,,Overcast,0,2013-01-18 00:53:00
8:51 PM,28.4,19.4,69,29.99,10.0,NW,5.8,-,N/A,,Overcast,320,2013-01-18 01:51:00
8:53 PM,28.0,19.9,72,30.06,10.0,NW,4.6,-,N/A,,Overcast,320,2013-01-18 01:53:00
9:53 PM,28.0,19.9,72,30.04,10.0,Calm,Calm,-,N/A,,Overcast,0,2013-01-18 02:53:00
10:03 PM,26.6,19.4,74,29.96,10.0,Calm,Calm,-,N/A,,Overcast,0,2013-01-18 03:03:00
10:53 PM,27.0,21.0,78,30.01,10.0,Calm,Calm,-,N/A,,Overcast,0,2013-01-18 03:53:00
11:53 PM,27.0,19.9,75,30.03,10.0,Calm,Calm,-,N/A,,Overcast,0,2013-01-18 04:53:00